DIRECTV 15

Last updated on Mon Nov 03 2025 00:02:57 GMT+0000 (Coordinated Universal Time)

1 40663U 15026A 25306.51976858 .00000000 00000+0 00000+0 0 9996 2 40663 0.0214 93.8731 0000520 159.3767 233.0511 1.00277672 38192
UTC large
Height (km)
Speed (km/s)
/
Latitude / Longitude
Inclination (degrees)
Orbital Period (minutes)
Azimuth
Elevation
Range (km)
Doppler Factor

Next 0 passes for location: London (51.5072 / 0.1276)

Sorry there are no passes over London.